Simultaneous Nadir Overpasses (SNOs) Predictions

Prediction of SNOs between GOES-16 and AQUA Satellite Orbit:

Table of predicted SNOs for the next 14.0 days since TLE Epoch: 7/6/2018
Index Date Time (GOES-16) GOES-16 Lat,Lon AQUA Lat,Lon Distance(km) Time Diff (sec)
1 07/08/2018 18:23:29 0.02, -75.20 0.75, -71.66 401.98 80
2 07/09/2018 06:44:45 -0.02, -75.20 0.30, -76.83 184.89 80
3 07/11/2018 06:29:53 -0.02, -75.20 -0.31, -73.87 151.87 80
4 07/11/2018 18:51:17 0.02, -75.21 -0.80, -79.06 437.78 80
5 07/13/2018 06:17:41 -0.01, -75.21 -0.92, -70.91 488.82 80
6 07/13/2018 18:39:05 0.02, -75.22 -0.19, -76.10 100.66 80
7 07/15/2018 18:29:33 0.01, -75.23 0.44, -73.14 237.23 80
8 07/16/2018 06:50:49 -0.01, -75.23 0.64, -78.30 349.12 80
9 07/18/2018 06:38:37 -0.00, -75.26 0.02, -75.34 10.14 80
10 07/20/2018 06:23:45 -0.00, -75.29 -0.60, -72.38 329.51 80
11 07/20/2018 18:45:08 0.00, -75.30 -0.48, -77.58 259.36 80




NCC Satellite Simultaneous Nadir Overpasses (SNOs) Prediction Service
